Home > Weather > Victoria > Past weeks

Flag for Canada Weather for the Past 2 Weeks in Victoria, British Columbia, Canada

Now
41 °F

Overcast.


Feels Like: 41 °F
Forecast: 48 / 52 °F
Wind: No wind

Location: Victoria Int. Airportb. C.

Current Time: Feb 14, 2016 at 5:26:23 AM

Latest Report: Feb 14, 2016 at 4:00 AM


Visibility: 20 mi

Pressure: 30.08 "Hg

Humidity: 100%

Dew point: 41 °F

Location of VictoriaLocation

Historic Weather in Victoria — Graph

°F

Victoria Temperature Yesterday

Maximum temperature yesterday: 46 °F (at 11:00 AM)
Minimum temperature yesterday: 41 °F (at 3:00 AM)
Average temperature yesterday: 44 °F

High & Low Weather Summary for the Past Weeks

 TemperatureHumidityPressure
High57 °F (Feb 12, 2:00 PM)100% (Jan 31, 5:00 PM)30.62 "Hg (Jan 31, 5:00 PM)
Low34 °F (Feb 1, 1:00 AM)59% (Feb 9, 2:00 PM)29.84 "Hg (Jan 30, 4:00 AM)
Average44 °F88%30.18 "Hg
* Reported Jan 30 4:00 AM — Feb 14 4:00 AM, Victoria, Weather by CustomWeather, © 2016

Note: Actual official high and low records may vary slightly from our data, if they occured in-between our weather recording intervals... More about our weather records

Advertising

Victoria Weather History for the Previous 24 Hours

 ConditionsComfort  
Time TempWeatherWind HumidityBarometerVisibility
4:00 AM
Sun, Feb 14
41 °FOvercast.No wind100%30.08 "Hg20 mi
3:00 AM41 °FMostly cloudy.3 mph100%30.10 "Hg15 mi
2:00 AM41 °FMostly cloudy.3 mph100%30.09 "Hg15 mi
1:00 AM41 °FMostly cloudy.3 mph100%30.10 "Hg15 mi
12:00 AM41 °FMostly cloudy.3 mph100%30.08 "Hg15 mi
11:00 PM
Sat, Feb 13
43 °FMostly cloudy.5 mph93%30.05 "Hg15 mi
10:00 PM43 °FLight rain. Overcast.5 mph93%30.02 "Hg12 mi
9:00 PM43 °FLight rain. Low clouds.6 mph100%30.02 "Hg12 mi
8:00 PM43 °FPassing clouds.2 mph100%29.99 "Hg20 mi
7:00 PM43 °FPassing clouds.3 mph100%29.99 "Hg15 mi
6:00 PM43 °FLight rain. Passing clouds.2 mph93%29.98 "Hg15 mi
5:00 PM43 °FLight rain. Mostly cloudy.3 mph100%30.00 "Hg12 mi
4:00 PM43 °FLight rain. Mostly cloudy.No wind100%30.02 "Hg20 mi
3:00 PM45 °FLight rain. Cloudy.3 mph93%30.06 "Hg15 mi
2:00 PM46 °FLight rain. Mostly cloudy.3 mph93%30.11 "Hg8 mi
1:00 PM46 °FLight rain. Mostly cloudy.8 mph87%30.14 "Hg12 mi
12:00 PM46 °FLight rain. Mostly cloudy.10 mph87%30.16 "Hg20 mi
11:00 AM46 °FCloudy.9 mph87%30.17 "Hg30 mi
10:00 AM45 °FCloudy.9 mph93%30.21 "Hg30 mi
9:00 AM45 °FBroken clouds.7 mph93%30.23 "Hg30 mi
8:00 AM45 °FBroken clouds.12 mph87%30.21 "Hg30 mi
7:00 AM45 °FPartly cloudy.9 mph81%30.20 "Hg30 mi
6:00 AM45 °FPassing clouds.10 mph81%30.20 "Hg30 mi
5:00 AM43 °FPartly cloudy.9 mph93%30.19 "Hg30 mi
Weather by CustomWeather, © 2016

See weather overviewHow to use our weather pages